Time,TemperatureF,DewpointF,PressureIn,WindDirection,WindDirectionDegrees,WindSpeedMPH,WindSpeedGustMPH,Humidity,HourlyPrecipIn,Conditions,Clouds,dailyrainin,SoftwareType,DateUTC
2013-08-22 00:00:00,76.8,72.6,30.09,ENE,77,0.0,0.0,87,0.00,,---,0.00,VWS V14.01,2013-08-22 04:00:00,
2013-08-22 00:01:00,76.8,72.6,30.09,East,79,0.0,0.0,87,0.00,,---,0.00,VWS V14.01,2013-08-22 04:01:00,
2013-08-22 00:06:00,76.9,72.7,30.09,East,82,0.0,1.0,87,0.00,,---,0.00,VWS V14.01,2013-08-22 04:06:00,
2013-08-22 00:10:00,76.9,72.7,30.09,East,82,0.0,1.0,87,0.00,,---,0.00,VWS V14.01,2013-08-22 04:10:00,
2013-08-22 00:11:00,76.9,72.7,30.09,East,89,0.0,1.0,87,0.00,,---,0.00,VWS V14.01,2013-08-22 04:11:00,
2013-08-22 00:16:00,77.0,72.8,30.09,East,82,1.0,2.0,87,0.00,,---,0.00,VWS V14.01,2013-08-22 04:16:00,
2013-08-22 00:20:00,77.0,72.8,30.09,East,82,0.0,2.0,87,0.00,,---,0.00,VWS V14.01,2013-08-22 04:20:00,
2013-08-22 00:21:00,77.0,72.8,30.08,ENE,78,1.0,2.0,87,0.00,,---,0.00,VWS V14.01,2013-08-22 04:21:00,
2013-08-22 00:26:00,77.1,72.9,30.08,East,80,1.0,3.0,87,0.00,,---,0.00,VWS V14.01,2013-08-22 04:26:00,
2013-08-22 00:30:00,77.1,72.9,30.08,East,84,1.0,3.0,87,0.00,,---,0.00,VWS V14.01,2013-08-22 04:30:00,
2013-08-22 00:31:00,77.2,73.0,30.08,ENE,76,0.0,2.0,87,0.00,,---,0.00,VWS V14.01,2013-08-22 04:31:00,
2013-08-22 00:36:00,77.3,73.1,30.08,East,87,0.0,2.0,87,0.00,,---,0.00,VWS V14.01,2013-08-22 04:36:00,
2013-08-22 00:40:00,77.3,73.1,30.08,East,82,1.0,2.0,87,0.00,,---,0.00,VWS V14.01,2013-08-22 04:40:00,
2013-08-22 00:41:00,77.4,73.2,30.08,East,80,1.0,3.0,87,0.00,,---,0.00,VWS V14.01,2013-08-22 04:41:00,
2013-08-22 00:46:00,77.5,73.3,30.08,East,80,0.0,3.0,87,0.00,,---,0.00,VWS V14.01,2013-08-22 04:46:00,
2013-08-22 00:50:00,77.5,73.3,30.08,East,80,0.0,3.0,87,0.00,,---,0.00,VWS V14.01,2013-08-22 04:50:00,
2013-08-22 00:51:00,77.4,73.2,30.08,East,80,0.0,1.0,87,0.00,,---,0.00,VWS V14.01,2013-08-22 04:51:00,
2013-08-22 00:56:00,77.4,73.2,30.08,East,81,0.0,1.0,87,0.00,,---,0.00,VWS V14.01,2013-08-22 04:56:00,
2013-08-22 01:00:00,77.5,73.3,30.08,East,80,0.0,1.0,87,0.00,,---,0.00,VWS V14.01,2013-08-22 05:00:00,
2013-08-22 01:01:00,77.5,73.3,30.08,East,81,0.0,0.0,87,0.00,,---,0.00,VWS V14.01,2013-08-22 05:01:00,
2013-08-22 01:06:00,77.5,73.3,30.08,East,80,0.0,1.0,87,0.00,,---,0.00,VWS V14.01,2013-08-22 05:06:00,
2013-08-22 01:10:00,77.5,73.3,30.08,East,80,0.0,1.0,87,0.00,,---,0.00,VWS V14.01,2013-08-22 05:10:00,
2013-08-22 01:11:00,77.5,73.3,30.07,East,80,0.0,0.0,87,0.00,,---,0.00,VWS V14.01,2013-08-22 05:11:00,
2013-08-22 01:17:00,77.4,73.2,30.07,East,80,0.0,0.0,87,0.00,,---,0.00,VWS V14.01,2013-08-22 05:17:00,
2013-08-22 01:20:00,77.4,73.2,30.07,East,80,0.0,1.0,87,0.00,,---,0.00,VWS V14.01,2013-08-22 05:20:00,
2013-08-22 01:22:00,77.3,73.1,30.07,East,81,0.0,0.0,87,0.00,,---,0.00,VWS V14.01,2013-08-22 05:22:00,
2013-08-22 01:27:00,77.4,73.2,30.08,East,81,0.0,1.0,87,0.00,,---,0.00,VWS V14.01,2013-08-22 05:27:00,
2013-08-22 01:30:00,77.4,73.2,30.08,East,81,0.0,1.0,87,0.00,,---,0.00,VWS V14.01,2013-08-22 05:30:00,
2013-08-22 01:32:00,77.5,73.3,30.07,East,81,0.0,0.0,87,0.00,,---,0.00,VWS V14.01,2013-08-22 05:32:00,
2013-08-22 01:37:00,77.6,73.4,30.07,East,80,0.0,0.0,87,0.00,,---,0.00,VWS V14.01,2013-08-22 05:37:00,
2013-08-22 01:40:00,77.6,73.4,30.07,East,81,0.0,0.0,87,0.00,,---,0.00,VWS V14.01,2013-08-22 05:40:00,
2013-08-22 01:42:00,77.6,73.4,30.07,East,80,0.0,0.0,87,0.00,,---,0.00,VWS V14.01,2013-08-22 05:42:00,
2013-08-22 01:47:00,77.7,73.5,30.07,East,80,0.0,0.0,87,0.00,,---,0.00,VWS V14.01,2013-08-22 05:47:00,
2013-08-22 01:50:00,77.7,73.5,30.07,East,80,0.0,0.0,87,0.00,,---,0.00,VWS V14.01,2013-08-22 05:50:00,
2013-08-22 01:52:00,77.7,73.5,30.07,ENE,78,0.0,0.0,87,0.00,,---,0.00,VWS V14.01,2013-08-22 05:52:00,
2013-08-22 01:57:00,77.8,73.6,30.07,East,84,0.0,2.0,87,0.00,,---,0.00,VWS V14.01,2013-08-22 05:57:00,
2013-08-22 02:00:00,77.8,73.6,30.07,East,83,0.0,2.0,87,0.00,,---,0.00,VWS V14.01,2013-08-22 06:00:00,
2013-08-22 02:02:00,77.8,73.6,30.07,East,84,0.0,0.0,87,0.00,,---,0.00,VWS V14.01,2013-08-22 06:02:00,
2013-08-22 02:07:00,77.7,73.5,30.07,East,83,0.0,0.0,87,0.00,,---,0.00,VWS V14.01,2013-08-22 06:07:00,
2013-08-22 02:10:00,77.7,73.5,30.07,East,84,0.0,0.0,87,0.00,,---,0.00,VWS V14.01,2013-08-22 06:10:00,
2013-08-22 02:12:00,77.7,73.5,30.07,East,84,0.0,0.0,87,0.00,,---,0.00,VWS V14.01,2013-08-22 06:12:00,
2013-08-22 02:17:00,77.6,73.4,30.07,East,84,0.0,0.0,87,0.00,,---,0.00,VWS V14.01,2013-08-22 06:17:00,
2013-08-22 02:20:00,77.5,73.3,30.06,East,84,0.0,0.0,87,0.00,,---,0.00,VWS V14.01,2013-08-22 06:20:00,
2013-08-22 02:22:00,77.4,73.2,30.06,East,84,0.0,0.0,87,0.00,,---,0.00,VWS V14.01,2013-08-22 06:22:00,
2013-08-22 02:27:00,77.4,73.2,30.07,East,84,0.0,0.0,87,0.00,,---,0.00,VWS V14.01,2013-08-22 06:27:00,
2013-08-22 02:30:00,77.5,73.3,30.06,East,84,0.0,0.0,87,0.00,,---,0.00,VWS V14.01,2013-08-22 06:30:00,
2013-08-22 02:32:00,77.6,73.4,30.06,East,83,0.0,0.0,87,0.00,,---,0.00,VWS V14.01,2013-08-22 06:32:00,
2013-08-22 02:37:00,77.6,73.8,30.06,ENE,63,0.0,2.0,88,0.00,,---,0.00,VWS V14.01,2013-08-22 06:37:00,
2013-08-22 02:40:00,77.7,73.9,30.06,ENE,62,0.0,2.0,88,0.00,,---,0.00,VWS V14.01,2013-08-22 06:40:00,
2013-08-22 02:42:00,77.7,73.5,30.06,ENE,71,0.0,2.0,87,0.00,,---,0.00,VWS V14.01,2013-08-22 06:42:00,
2013-08-22 02:47:00,77.7,73.5,30.06,East,84,0.0,2.0,87,0.00,,---,0.00,VWS V14.01,2013-08-22 06:47:00,
2013-08-22 02:50:00,77.7,73.5,30.06,East,84,0.0,2.0,87,0.00,,---,0.00,VWS V14.01,2013-08-22 06:50:00,
2013-08-22 02:52:00,77.7,73.5,30.06,East,84,0.0,0.0,87,0.00,,---,0.00,VWS V14.01,2013-08-22 06:52:00,
2013-08-22 02:57:00,77.7,73.5,30.06,East,81,0.0,0.0,87,0.00,,---,0.00,VWS V14.01,2013-08-22 06:57:00,
2013-08-22 03:00:00,77.7,73.5,30.07,East,84,0.0,0.0,87,0.00,,---,0.00,VWS V14.01,2013-08-22 07:00:00,
2013-08-22 03:02:00,77.7,73.5,30.07,East,82,0.0,0.0,87,0.00,,---,0.00,VWS V14.01,2013-08-22 07:02:00,
2013-08-22 03:07:00,77.7,73.5,30.06,East,82,0.0,0.0,87,0.00,,---,0.00,VWS V14.01,2013-08-22 07:07:00,
2013-08-22 03:10:00,77.7,73.5,30.06,East,82,0.0,0.0,87,0.00,,---,0.00,VWS V14.01,2013-08-22 07:10:00,
2013-08-22 03:12:00,77.7,73.5,30.06,East,84,0.0,0.0,87,0.00,,---,0.00,VWS V14.01,2013-08-22 07:12:00,
2013-08-22 03:17:00,77.6,73.4,30.06,ESE,120,0.0,0.0,87,0.00,,---,0.00,VWS V14.01,2013-08-22 07:17:00,
2013-08-22 03:20:00,77.6,73.4,30.06,ESE,119,1.0,1.0,87,0.00,,---,0.00,VWS V14.01,2013-08-22 07:20:00,
2013-08-22 03:22:00,77.6,73.4,30.06,East,92,0.0,1.0,87,0.00,,---,0.00,VWS V14.01,2013-08-22 07:22:00,
2013-08-22 03:27:00,77.6,73.4,30.06,East,100,0.0,1.0,87,0.00,,---,0.00,VWS V14.01,2013-08-22 07:27:00,
2013-08-22 03:30:00,77.6,73.4,30.06,East,101,0.0,1.0,87,0.00,,---,0.00,VWS V14.01,2013-08-22 07:30:00,
2013-08-22 03:32:00,77.6,73.4,30.06,East,79,1.0,1.0,87,0.00,,---,0.00,VWS V14.01,2013-08-22 07:32:00,
2013-08-22 03:37:00,77.5,73.3,30.06,ENE,74,0.0,1.0,87,0.00,,---,0.00,VWS V14.01,2013-08-22 07:37:00,
2013-08-22 03:40:00,77.5,73.3,30.06,ENE,73,1.0,1.0,87,0.00,,---,0.00,VWS V14.01,2013-08-22 07:40:00,
2013-08-22 03:42:00,77.5,73.3,30.06,East,92,1.0,3.0,87,0.00,,---,0.00,VWS V14.01,2013-08-22 07:42:00,
2013-08-22 03:47:00,77.5,73.3,30.05,ENE,63,1.0,3.0,87,0.00,,---,0.00,VWS V14.01,2013-08-22 07:47:00,
2013-08-22 03:50:00,77.5,73.7,30.06,ENE,68,0.0,3.0,88,0.00,,---,0.00,VWS V14.01,2013-08-22 07:50:00,
2013-08-22 03:52:00,77.6,73.8,30.06,East,96,0.0,1.0,88,0.00,,---,0.00,VWS V14.01,2013-08-22 07:52:00,
2013-08-22 03:57:00,77.6,73.8,30.05,East,96,0.0,1.0,88,0.00,,---,0.00,VWS V14.01,2013-08-22 07:57:00,
2013-08-22 04:00:00,77.6,73.8,30.05,East,97,0.0,1.0,88,0.00,,---,0.00,VWS V14.01,2013-08-22 08:00:00,
2013-08-22 04:02:00,77.6,73.8,30.05,East,98,0.0,0.0,88,0.00,,---,0.00,VWS V14.01,2013-08-22 08:02:00,
2013-08-22 04:07:00,77.6,73.8,30.05,ENE,71,0.0,2.0,88,0.00,,---,0.00,VWS V14.01,2013-08-22 08:07:00,
2013-08-22 04:10:00,77.6,73.8,30.05,East,79,1.0,2.0,88,0.00,,---,0.00,VWS V14.01,2013-08-22 08:10:00,
2013-08-22 04:12:00,77.6,73.8,30.04,ENE,76,0.0,2.0,88,0.00,,---,0.00,VWS V14.01,2013-08-22 08:12:00,
2013-08-22 04:17:00,77.5,73.7,30.04,ENE,76,1.0,3.0,88,0.00,,---,0.00,VWS V14.01,2013-08-22 08:17:00,
2013-08-22 04:20:00,77.6,73.8,30.04,ENE,78,0.0,3.0,88,0.00,,---,0.00,VWS V14.01,2013-08-22 08:20:00,
2013-08-22 04:22:00,77.5,73.7,30.04,ESE,120,1.0,3.0,88,0.00,,---,0.00,VWS V14.01,2013-08-22 08:22:00,
2013-08-22 04:27:00,77.5,73.7,30.04,ENE,70,0.0,3.0,88,0.00,,---,0.00,VWS V14.01,2013-08-22 08:27:00,
2013-08-22 04:30:00,77.6,73.8,30.04,East,79,0.0,3.0,88,0.00,,---,0.00,VWS V14.01,2013-08-22 08:30:00,
2013-08-22 04:32:00,77.6,73.8,30.04,ENE,78,0.0,1.0,88,0.00,,---,0.00,VWS V14.01,2013-08-22 08:32:00,
2013-08-22 04:37:00,77.6,73.8,30.04,East,82,0.0,1.0,88,0.00,,---,0.00,VWS V14.01,2013-08-22 08:37:00,
2013-08-22 04:40:00,77.6,73.8,30.04,East,79,0.0,1.0,88,0.00,,---,0.00,VWS V14.01,2013-08-22 08:40:00,
2013-08-22 04:42:00,77.6,73.8,30.03,East,88,1.0,2.0,88,0.00,,---,0.00,VWS V14.01,2013-08-22 08:42:00,
2013-08-22 04:47:00,77.6,73.8,30.03,ENE,73,3.0,3.0,88,0.00,,---,0.00,VWS V14.01,2013-08-22 08:47:00,
2013-08-22 04:50:00,77.7,73.9,30.03,East,86,2.0,3.0,88,0.00,,---,0.00,VWS V14.01,2013-08-22 08:50:00,
2013-08-22 04:52:00,77.7,73.9,30.03,ENE,72,0.0,2.0,88,0.00,,---,0.00,VWS V14.01,2013-08-22 08:52:00,
2013-08-22 04:57:00,77.7,73.5,30.03,ENE,78,0.0,2.0,87,0.00,,---,0.00,VWS V14.01,2013-08-22 08:57:00,
2013-08-22 05:00:00,77.7,73.5,30.03,ENE,78,0.0,2.0,87,0.00,,---,0.00,VWS V14.01,2013-08-22 09:00:00,
2013-08-22 05:02:00,77.7,73.5,30.03,ENE,78,0.0,1.0,87,0.00,,---,0.00,VWS V14.01,2013-08-22 09:02:00,
2013-08-22 05:07:00,77.7,73.5,30.03,ENE,73,0.0,1.0,87,0.00,,---,0.00,VWS V14.01,2013-08-22 09:07:00,
2013-08-22 05:10:00,77.7,73.5,30.03,ENE,73,0.0,1.0,87,0.00,,---,0.00,VWS V14.01,2013-08-22 09:10:00,
2013-08-22 05:12:00,77.6,73.4,30.03,East,81,0.0,0.0,87,0.00,,---,0.00,VWS V14.01,2013-08-22 09:12:00,
2013-08-22 05:17:00,77.6,73.4,30.03,East,80,0.0,0.0,87,0.00,,---,0.00,VWS V14.01,2013-08-22 09:17:00,
2013-08-22 05:20:00,77.6,73.4,30.03,East,81,0.0,0.0,87,0.00,,---,0.00,VWS V14.01,2013-08-22 09:20:00,
2013-08-22 05:22:00,77.5,73.3,30.03,East,80,0.0,0.0,87,0.00,,---,0.00,VWS V14.01,2013-08-22 09:22:00,
2013-08-22 05:27:00,77.4,73.2,30.04,East,81,0.0,0.0,87,0.00,,---,0.00,VWS V14.01,2013-08-22 09:27:00,
2013-08-22 05:30:00,77.4,73.2,30.04,East,80,0.0,0.0,87,0.00,,---,0.00,VWS V14.01,2013-08-22 09:30:00,
2013-08-22 05:32:00,77.4,73.2,30.04,East,80,0.0,0.0,87,0.00,,---,0.00,VWS V14.01,2013-08-22 09:32:00,
2013-08-22 05:37:00,77.4,73.2,30.04,East,80,0.0,0.0,87,0.00,,---,0.00,VWS V14.01,2013-08-22 09:37:00,
2013-08-22 05:40:00,77.3,73.1,30.04,East,80,0.0,0.0,87,0.00,,---,0.00,VWS V14.01,2013-08-22 09:40:00,
2013-08-22 05:42:00,77.3,73.1,30.04,East,80,0.0,0.0,87,0.00,,---,0.00,VWS V14.01,2013-08-22 09:42:00,
2013-08-22 05:47:00,77.3,73.5,30.04,ENE,76,0.0,0.0,88,0.00,,---,0.00,VWS V14.01,2013-08-22 09:47:00,
2013-08-22 05:50:00,77.3,73.5,30.04,ENE,77,0.0,0.0,88,0.00,,---,0.00,VWS V14.01,2013-08-22 09:50:00,
2013-08-22 05:52:00,77.3,73.5,30.04,East,89,0.0,0.0,88,0.00,,---,0.00,VWS V14.01,2013-08-22 09:52:00,
2013-08-22 05:57:00,77.3,73.5,30.04,East,94,0.0,0.0,88,0.00,,---,0.00,VWS V14.01,2013-08-22 09:57:00,
2013-08-22 06:00:00,77.3,73.5,30.04,East,94,0.0,0.0,88,0.00,,---,0.00,VWS V14.01,2013-08-22 10:00:00,
2013-08-22 06:02:00,77.3,73.5,30.04,ENE,75,0.0,2.0,88,0.00,,---,0.00,VWS V14.01,2013-08-22 10:02:00,
2013-08-22 06:07:00,77.3,73.5,30.04,East,89,0.0,2.0,88,0.00,,---,0.00,VWS V14.01,2013-08-22 10:07:00,
2013-08-22 06:10:00,77.3,73.5,30.04,East,89,1.0,2.0,88,0.00,,---,0.00,VWS V14.01,2013-08-22 10:10:00,
2013-08-22 06:12:00,77.3,73.5,30.04,East,89,0.0,2.0,88,0.00,,---,0.00,VWS V14.01,2013-08-22 10:12:00,
2013-08-22 06:18:00,77.3,73.5,30.04,ENE,72,0.0,2.0,88,0.00,,---,0.00,VWS V14.01,2013-08-22 10:18:00,
2013-08-22 06:20:00,77.3,73.5,30.04,East,84,1.0,2.0,88,0.00,,---,0.00,VWS V14.01,2013-08-22 10:20:00,
2013-08-22 06:23:00,77.3,73.5,30.04,East,84,0.0,1.0,88,0.00,,---,0.00,VWS V14.01,2013-08-22 10:23:00,
2013-08-22 06:28:00,77.3,73.5,30.04,East,85,1.0,1.0,88,0.00,,---,0.00,VWS V14.01,2013-08-22 10:28:00,
2013-08-22 06:30:00,77.3,73.5,30.04,East,84,0.0,1.0,88,0.00,,---,0.00,VWS V14.01,2013-08-22 10:30:00,
2013-08-22 06:33:00,77.3,73.5,30.04,East,85,1.0,1.0,88,0.00,,---,0.00,VWS V14.01,2013-08-22 10:33:00,
2013-08-22 06:38:00,77.3,73.5,30.04,East,80,0.0,2.0,88,0.00,,---,0.00,VWS V14.01,2013-08-22 10:38:00,
2013-08-22 06:40:00,77.3,73.5,30.04,East,81,0.0,2.0,88,0.00,,---,0.00,VWS V14.01,2013-08-22 10:40:00,
2013-08-22 06:43:00,77.3,73.5,30.04,East,80,0.0,1.0,88,0.00,,---,0.00,VWS V14.01,2013-08-22 10:43:00,
2013-08-22 06:48:00,77.3,73.5,30.04,East,79,0.0,1.0,88,0.00,,---,0.00,VWS V14.01,2013-08-22 10:48:00,
2013-08-22 06:50:00,77.3,73.5,30.04,East,79,0.0,1.0,88,0.00,,---,0.00,VWS V14.01,2013-08-22 10:50:00,
2013-08-22 07:00:00,77.4,73.6,30.04,East,82,0.0,0.0,88,0.00,,---,0.00,VWS V14.01,2013-08-22 11:00:00,
2013-08-22 07:10:00,77.4,73.6,30.05,East,82,0.0,0.0,88,0.00,,---,0.00,VWS V14.01,2013-08-22 11:10:00,
2013-08-22 07:20:00,77.4,73.6,30.05,East,84,1.0,1.0,88,0.00,,---,0.00,VWS V14.01,2013-08-22 11:20:00,
2013-08-22 07:30:00,77.5,73.7,30.05,East,86,0.0,2.0,88,0.00,,---,0.00,VWS V14.01,2013-08-22 11:30:00,
2013-08-22 07:40:00,77.6,73.8,30.06,ENE,72,0.0,0.0,88,0.00,,---,0.00,VWS V14.01,2013-08-22 11:40:00,
2013-08-22 07:50:00,77.9,74.1,30.06,East,95,0.0,2.0,88,0.00,,---,0.00,VWS V14.01,2013-08-22 11:50:00,
2013-08-22 08:00:00,78.1,74.3,30.06,East,86,1.0,2.0,88,0.00,,---,0.00,VWS V14.01,2013-08-22 12:00:00,
2013-08-22 08:10:00,78.5,74.7,30.07,ENE,74,2.0,3.0,88,0.00,,---,0.00,VWS V14.01,2013-08-22 12:10:00,
2013-08-22 08:20:00,78.7,74.8,30.07,ENE,74,1.0,2.0,88,0.00,,---,0.00,VWS V14.01,2013-08-22 12:20:00,
2013-08-22 08:27:00,79.0,75.2,30.08,East,82,0.0,3.0,88,0.00,,---,0.00,VWS V14.01,2013-08-22 12:27:00,
2013-08-22 08:30:00,79.0,75.2,30.08,East,82,0.0,3.0,88,0.00,,---,0.00,VWS V14.01,2013-08-22 12:30:00,
2013-08-22 08:32:00,79.2,75.0,30.08,East,84,0.0,1.0,87,0.00,,---,0.00,VWS V14.01,2013-08-22 12:32:00,
2013-08-22 08:37:00,79.3,75.1,30.08,East,82,0.0,1.0,87,0.00,,---,0.00,VWS V14.01,2013-08-22 12:37:00,
2013-08-22 08:40:00,79.3,75.1,30.08,East,82,0.0,1.0,87,0.00,,---,0.00,VWS V14.01,2013-08-22 12:40:00,
2013-08-22 08:42:00,79.3,75.1,30.08,ESE,113,0.0,2.0,87,0.00,,---,0.00,VWS V14.01,2013-08-22 12:42:00,
2013-08-22 08:47:00,79.5,75.3,30.08,East,82,0.0,2.0,87,0.00,,---,0.00,VWS V14.01,2013-08-22 12:47:00,
2013-08-22 08:50:00,79.5,75.3,30.08,East,88,0.0,2.0,87,0.00,,---,0.00,VWS V14.01,2013-08-22 12:50:00,
2013-08-22 08:52:00,79.7,75.5,30.08,East,97,0.0,1.0,87,0.00,,---,0.00,VWS V14.01,2013-08-22 12:52:00,
2013-08-22 08:57:00,79.9,75.7,30.08,ENE,70,1.0,2.0,87,0.00,,---,0.00,VWS V14.01,2013-08-22 12:57:00,
2013-08-22 09:00:00,80.0,75.8,30.08,ENE,72,0.0,1.0,87,0.00,,---,0.00,VWS V14.01,2013-08-22 13:00:00,
2013-08-22 09:05:00,80.1,75.5,30.09,East,93,0.0,2.0,86,0.00,,---,0.00,VWS V14.01,2013-08-22 13:05:00,
2013-08-22 09:10:00,80.3,75.7,30.09,East,97,0.0,1.0,86,0.00,,---,0.00,VWS V14.01,2013-08-22 13:10:00,
2013-08-22 09:15:00,80.6,76.0,30.09,East,92,0.0,1.0,86,0.00,,---,0.00,VWS V14.01,2013-08-22 13:15:00,
2013-08-22 09:20:00,80.8,76.2,30.09,East,92,0.0,1.0,86,0.00,,---,0.00,VWS V14.01,2013-08-22 13:20:00,
2013-08-22 09:25:00,81.0,76.4,30.08,ENE,75,2.0,3.0,86,0.00,,---,0.00,VWS V14.01,2013-08-22 13:25:00,
2013-08-22 09:30:00,81.1,76.5,30.09,ENE,78,1.0,2.0,86,0.00,,---,0.00,VWS V14.01,2013-08-22 13:30:00,
2013-08-22 09:35:00,81.3,76.7,30.09,East,86,1.0,3.0,86,0.00,,---,0.00,VWS V14.01,2013-08-22 13:35:00,
2013-08-22 09:40:00,81.5,76.9,30.09,ESE,106,2.0,3.0,86,0.00,,---,0.00,VWS V14.01,2013-08-22 13:40:00,
2013-08-22 09:45:00,82.0,77.4,30.09,East,94,1.0,3.0,86,0.00,,---,0.00,VWS V14.01,2013-08-22 13:45:00,
2013-08-22 09:50:00,82.2,77.6,30.09,East,84,1.0,3.0,86,0.00,,---,0.00,VWS V14.01,2013-08-22 13:50:00,
2013-08-22 09:51:00,82.4,77.8,30.09,East,81,1.0,5.0,86,0.00,,---,0.00,VWS V14.01,2013-08-22 13:51:00,
2013-08-22 09:56:00,82.7,77.7,30.09,NE,54,2.0,5.0,85,0.00,,---,0.00,VWS V14.01,2013-08-22 13:56:00,
2013-08-22 10:00:00,82.8,77.8,30.09,East,101,1.0,5.0,85,0.00,,---,0.00,VWS V14.01,2013-08-22 14:00:00,
2013-08-22 10:01:00,82.9,77.9,30.09,East,82,1.0,5.0,85,0.00,,---,0.00,VWS V14.01,2013-08-22 14:01:00,
2013-08-22 10:06:00,83.3,78.3,30.09,ENE,76,1.0,5.0,85,0.00,,---,0.00,VWS V14.01,2013-08-22 14:06:00,
2013-08-22 10:10:00,83.4,78.4,30.09,ESE,115,1.0,5.0,85,0.00,,---,0.00,VWS V14.01,2013-08-22 14:10:00,
2013-08-22 10:11:00,83.7,78.7,30.09,East,79,1.0,2.0,85,0.00,,---,0.00,VWS V14.01,2013-08-22 14:11:00,
2013-08-22 10:16:00,84.1,78.8,30.09,ESE,104,1.0,2.0,84,0.00,,---,0.00,VWS V14.01,2013-08-22 14:16:00,
2013-08-22 10:20:00,84.2,78.8,30.09,ENE,77,2.0,4.0,84,0.00,,---,0.00,VWS V14.01,2013-08-22 14:20:00,
2013-08-22 10:21:00,84.2,78.5,30.09,ESE,108,1.0,3.0,83,0.00,,---,0.00,VWS V14.01,2013-08-22 14:21:00,
2013-08-22 10:26:00,84.3,78.6,30.09,ESE,103,1.0,4.0,83,0.00,,---,0.00,VWS V14.01,2013-08-22 14:26:00,
2013-08-22 10:30:00,84.3,78.6,30.09,East,84,1.0,4.0,83,0.00,,---,0.00,VWS V14.01,2013-08-22 14:30:00,
2013-08-22 10:31:00,84.5,78.8,30.09,East,97,1.0,1.0,83,0.00,,---,0.00,VWS V14.01,2013-08-22 14:31:00,
2013-08-22 10:36:00,84.8,78.7,30.09,ESE,104,0.0,3.0,82,0.00,,---,0.00,VWS V14.01,2013-08-22 14:36:00,
2013-08-22 10:40:00,84.8,78.7,30.09,East,95,0.0,3.0,82,0.00,,---,0.00,VWS V14.01,2013-08-22 14:40:00,
2013-08-22 10:41:00,84.9,78.4,30.09,ESE,107,0.0,1.0,81,0.00,,---,0.00,VWS V14.01,2013-08-22 14:41:00,
2013-08-22 10:46:00,85.2,79.1,30.09,East,80,0.0,2.0,82,0.00,,---,0.00,VWS V14.01,2013-08-22 14:46:00,
2013-08-22 10:50:00,85.3,78.8,30.09,East,101,0.0,2.0,81,0.00,,---,0.00,VWS V14.01,2013-08-22 14:50:00,
2013-08-22 10:51:00,85.4,79.3,30.09,ESE,108,1.0,2.0,82,0.00,,---,0.00,VWS V14.01,2013-08-22 14:51:00,
2013-08-22 10:56:00,85.7,79.2,30.09,East,84,2.0,3.0,81,0.00,,---,0.00,VWS V14.01,2013-08-22 14:56:00,
2013-08-22 11:00:00,85.7,78.8,30.09,East,92,0.0,3.0,80,0.00,,---,0.00,VWS V14.01,2013-08-22 15:00:00,
2013-08-22 11:01:00,86.1,79.6,30.09,East,94,1.0,2.0,81,0.00,,---,0.00,VWS V14.01,2013-08-22 15:01:00,
2013-08-22 11:06:00,86.4,78.7,30.08,East,87,0.0,2.0,78,0.00,,---,0.00,VWS V14.01,2013-08-22 15:06:00,
2013-08-22 11:10:00,86.3,78.6,30.08,East,88,0.0,2.0,78,0.00,,---,0.00,VWS V14.01,2013-08-22 15:10:00,
2013-08-22 11:11:00,86.1,78.8,30.08,East,96,0.0,1.0,79,0.00,,---,0.00,VWS V14.01,2013-08-22 15:11:00,
2013-08-22 11:16:00,86.1,78.8,30.08,East,99,1.0,5.0,79,0.00,,---,0.00,VWS V14.01,2013-08-22 15:16:00,
2013-08-22 11:20:00,86.3,79.8,30.08,East,95,0.0,5.0,81,0.00,,---,0.00,VWS V14.01,2013-08-22 15:20:00,
2013-08-22 11:21:00,86.6,79.3,30.08,ESE,104,0.0,2.0,79,0.00,,---,0.00,VWS V14.01,2013-08-22 15:21:00,
2013-08-22 11:26:00,87.1,79.8,30.08,East,92,0.0,2.0,79,0.00,,---,0.00,VWS V14.01,2013-08-22 15:26:00,
2013-08-22 11:30:00,87.4,79.7,30.08,East,79,0.0,3.0,78,0.00,,---,0.00,VWS V14.01,2013-08-22 15:30:00,
2013-08-22 11:31:00,87.9,80.6,30.07,East,80,0.0,1.0,79,0.00,,---,0.00,VWS V14.01,2013-08-22 15:31:00,
2013-08-22 11:36:00,88.0,79.5,30.07,ESE,104,0.0,3.0,76,0.00,,---,0.00,VWS V14.01,2013-08-22 15:36:00,
2013-08-22 11:40:00,88.0,79.5,30.06,ENE,75,0.0,3.0,76,0.00,,---,0.00,VWS V14.01,2013-08-22 15:40:00,
2013-08-22 11:41:00,88.0,79.1,30.06,ESE,108,2.0,2.0,75,0.00,,---,0.00,VWS V14.01,2013-08-22 15:41:00,
2013-08-22 11:46:00,88.5,80.0,30.06,East,79,0.0,3.0,76,0.00,,---,0.00,VWS V14.01,2013-08-22 15:46:00,
2013-08-22 11:50:00,88.7,79.8,30.06,East,98,2.0,3.0,75,0.00,,---,0.00,VWS V14.01,2013-08-22 15:50:00,
2013-08-22 11:51:00,89.1,78.9,30.06,East,86,2.0,4.0,72,0.00,,---,0.00,VWS V14.01,2013-08-22 15:51:00,
2013-08-22 11:56:00,89.4,79.2,30.06,East,95,1.0,4.0,72,0.00,,---,0.00,VWS V14.01,2013-08-22 15:56:00,
2013-08-22 12:00:00,89.2,78.6,30.05,ESE,122,3.0,4.0,71,0.00,,---,0.00,VWS V14.01,2013-08-22 16:00:00,
2013-08-22 12:01:00,88.9,79.5,30.05,East,96,3.0,3.0,74,0.00,,---,0.00,VWS V14.01,2013-08-22 16:01:00,
2013-08-22 12:06:00,89.0,77.9,30.05,NE,40,1.0,5.0,70,0.00,,---,0.00,VWS V14.01,2013-08-22 16:06:00,
2013-08-22 12:10:00,89.1,78.0,30.05,East,89,2.0,5.0,70,0.00,,---,0.00,VWS V14.01,2013-08-22 16:10:00,
2013-08-22 12:11:00,89.1,78.0,30.05,East,80,1.0,3.0,70,0.00,,---,0.00,VWS V14.01,2013-08-22 16:11:00,
2013-08-22 12:16:00,89.0,78.4,30.05,SE,127,1.0,4.0,71,0.00,,---,0.00,VWS V14.01,2013-08-22 16:16:00,
2013-08-22 12:20:00,89.2,79.0,30.05,NE,53,4.0,4.0,72,0.00,,---,0.00,VWS V14.01,2013-08-22 16:20:00,
2013-08-22 12:21:00,89.7,78.2,30.05,East,101,0.0,4.0,69,0.00,,---,0.00,VWS V14.01,2013-08-22 16:21:00,
2013-08-22 12:26:00,90.3,78.8,30.05,East,98,0.0,4.0,69,0.00,,---,0.00,VWS V14.01,2013-08-22 16:26:00,
2013-08-22 12:30:00,90.5,78.5,30.05,East,94,2.0,4.0,68,0.00,,---,0.00,VWS V14.01,2013-08-22 16:30:00,
2013-08-22 12:31:00,90.8,78.8,30.05,East,89,2.0,3.0,68,0.00,,---,0.00,VWS V14.01,2013-08-22 16:31:00,
2013-08-22 12:36:00,90.6,78.6,30.05,East,84,1.0,4.0,68,0.00,,---,0.00,VWS V14.01,2013-08-22 16:36:00,
2013-08-22 12:40:00,90.6,79.0,30.05,ESE,122,0.0,4.0,69,0.00,,---,0.00,VWS V14.01,2013-08-22 16:40:00,
2013-08-22 12:41:00,91.0,79.4,30.05,ENE,70,2.0,2.0,69,0.00,,---,0.00,VWS V14.01,2013-08-22 16:41:00,
2013-08-22 12:46:00,91.0,78.1,30.05,ESE,104,2.0,4.0,66,0.00,,---,0.00,VWS V14.01,2013-08-22 16:46:00,
2013-08-22 12:50:00,90.9,78.4,30.05,SE,146,0.0,4.0,67,0.00,,---,0.00,VWS V14.01,2013-08-22 16:50:00,
2013-08-22 12:52:00,91.3,78.8,30.04,East,80,0.0,1.0,67,0.00,,---,0.00,VWS V14.01,2013-08-22 16:52:00,
2013-08-22 12:57:00,91.8,78.4,30.04,East,88,2.0,3.0,65,0.00,,---,0.00,VWS V14.01,2013-08-22 16:57:00,
2013-08-22 13:00:00,91.6,79.1,30.04,East,79,3.0,3.0,67,0.00,,---,0.00,VWS V14.01,2013-08-22 17:00:00,
2013-08-22 13:02:00,91.3,78.8,30.03,ENE,78,0.0,4.0,67,0.00,,---,0.00,VWS V14.01,2013-08-22 17:02:00,
2013-08-22 13:07:00,91.6,78.6,30.03,East,82,0.0,4.0,66,0.00,,---,0.00,VWS V14.01,2013-08-22 17:07:00,
2013-08-22 13:10:00,91.8,79.3,30.03,East,91,1.0,4.0,67,0.00,,---,0.00,VWS V14.01,2013-08-22 17:10:00,
2013-08-22 13:12:00,91.9,78.0,30.03,East,88,0.0,3.0,64,0.00,,---,0.00,VWS V14.01,2013-08-22 17:12:00,
2013-08-22 13:17:00,92.0,78.1,30.02,SE,137,0.0,3.0,64,0.00,,---,0.00,VWS V14.01,2013-08-22 17:17:00,
2013-08-22 13:20:00,92.3,78.8,30.02,ENE,70,2.0,3.0,65,0.00,,---,0.00,VWS V14.01,2013-08-22 17:20:00,
2013-08-22 13:22:00,92.8,78.8,30.02,ESE,103,1.0,4.0,64,0.00,,---,0.00,VWS V14.01,2013-08-22 17:22:00,
2013-08-22 13:27:00,93.5,78.5,30.01,East,89,0.0,4.0,62,0.00,,---,0.00,VWS V14.01,2013-08-22 17:27:00,
2013-08-22 13:30:00,93.6,77.6,30.01,ENE,60,5.0,5.0,60,0.00,,---,0.00,VWS V14.01,2013-08-22 17:30:00,
2013-08-22 13:32:00,93.1,77.7,30.01,East,84,1.0,7.0,61,0.00,,---,0.00,VWS V14.01,2013-08-22 17:32:00,
2013-08-22 13:37:00,92.7,77.3,30.01,ENE,71,2.0,7.0,61,0.00,,---,0.00,VWS V14.01,2013-08-22 17:37:00,
2013-08-22 13:40:00,92.5,76.6,30.01,ENE,70,0.0,7.0,60,0.00,,---,0.00,VWS V14.01,2013-08-22 17:40:00,
2013-08-22 13:42:00,92.5,78.1,30.02,ENE,72,3.0,3.0,63,0.00,,---,0.00,VWS V14.01,2013-08-22 17:42:00,
2013-08-22 13:47:00,92.2,76.8,30.02,ENE,77,2.0,4.0,61,0.00,,---,0.00,VWS V14.01,2013-08-22 17:47:00,
2013-08-22 13:50:00,92.0,76.1,30.02,ENE,77,0.0,4.0,60,0.00,,---,0.00,VWS V14.01,2013-08-22 17:50:00,
2013-08-22 13:52:00,91.7,76.3,30.02,East,81,0.0,1.0,61,0.00,,---,0.00,VWS V14.01,2013-08-22 17:52:00,
2013-08-22 13:57:00,91.3,76.5,30.03,East,85,1.0,5.0,62,0.00,,---,0.00,VWS V14.01,2013-08-22 17:57:00,
2013-08-22 14:00:00,91.3,76.5,30.03,ESE,104,0.0,5.0,62,0.00,,---,0.00,VWS V14.01,2013-08-22 18:00:00,
2013-08-22 14:02:00,91.2,76.4,30.02,East,88,2.0,4.0,62,0.00,,---,0.00,VWS V14.01,2013-08-22 18:02:00,
2013-08-22 14:07:00,91.1,75.8,30.02,East,91,0.0,4.0,61,0.00,,---,0.00,VWS V14.01,2013-08-22 18:07:00,
2013-08-22 14:10:00,91.1,76.3,30.02,East,80,2.0,4.0,62,0.00,,---,0.00,VWS V14.01,2013-08-22 18:10:00,
2013-08-22 14:12:00,91.3,76.5,30.02,SW,214,0.0,2.0,62,0.00,,---,0.00,VWS V14.01,2013-08-22 18:12:00,
2013-08-22 14:17:00,91.8,75.9,30.02,ESE,116,2.0,4.0,60,0.00,,---,0.00,VWS V14.01,2013-08-22 18:17:00,
2013-08-22 14:20:00,91.8,76.4,30.02,ESE,108,1.0,4.0,61,0.00,,---,0.00,VWS V14.01,2013-08-22 18:20:00,
2013-08-22 14:22:00,91.4,75.1,30.02,East,89,3.0,7.0,59,0.00,,---,0.00,VWS V14.01,2013-08-22 18:22:00,
2013-08-22 14:27:00,90.6,75.3,30.02,ENE,76,7.0,11.0,61,0.00,,---,0.00,VWS V14.01,2013-08-22 18:27:00,
2013-08-22 14:30:00,90.0,73.8,30.03,NE,39,8.0,16.0,59,0.00,,---,0.00,VWS V14.01,2013-08-22 18:30:00,
2013-08-22 14:32:00,86.3,74.1,30.03,ENE,58,5.0,17.0,67,0.00,,---,0.00,VWS V14.01,2013-08-22 18:32:00,
2013-08-22 14:37:00,82.9,73.4,30.04,East,93,16.0,17.0,73,0.00,,---,0.00,VWS V14.01,2013-08-22 18:37:00,
2013-08-22 14:40:00,82.3,73.2,30.04,East,89,7.0,17.0,74,0.00,,---,0.00,VWS V14.01,2013-08-22 18:40:00,
2013-08-22 14:42:00,80.6,73.1,30.05,East,95,5.0,12.0,78,0.01,,---,0.01,VWS V14.01,2013-08-22 18:42:00,
2013-08-22 14:47:00,78.6,73.0,30.06,NE,47,5.0,16.0,83,0.03,,---,0.03,VWS V14.01,2013-08-22 18:47:00,
2013-08-22 14:50:00,78.3,72.7,30.06,ESE,110,6.0,16.0,83,0.03,,---,0.03,VWS V14.01,2013-08-22 18:50:00,
2013-08-22 14:52:00,77.1,72.2,30.06,East,82,8.0,13.0,85,0.05,,---,0.05,VWS V14.01,2013-08-22 18:52:00,
2013-08-22 14:57:00,76.1,71.6,30.06,ESE,102,4.0,13.0,86,0.17,,---,0.17,VWS V14.01,2013-08-22 18:57:00,
2013-08-22 15:00:00,76.0,71.5,30.06,ENE,71,3.0,13.0,86,0.23,,---,0.23,VWS V14.01,2013-08-22 19:00:00,
2013-08-22 15:02:00,75.4,70.9,30.07,East,81,3.0,5.0,86,0.34,,---,0.34,VWS V14.01,2013-08-22 19:02:00,
2013-08-22 15:07:00,74.6,70.5,30.06,East,84,4.0,6.0,87,0.60,,---,0.60,VWS V14.01,2013-08-22 19:07:00,
2013-08-22 15:10:00,74.5,70.4,30.06,ESE,118,3.0,6.0,87,0.62,,---,0.62,VWS V14.01,2013-08-22 19:10:00,
2013-08-22 15:12:00,74.1,70.0,30.06,ESE,116,2.0,6.0,87,0.76,,---,0.76,VWS V14.01,2013-08-22 19:12:00,
2013-08-22 15:17:00,73.8,69.7,30.05,ENE,65,3.0,6.0,87,0.85,,---,0.85,VWS V14.01,2013-08-22 19:17:00,
2013-08-22 15:20:00,73.8,69.7,30.05,ESE,108,2.0,6.0,87,0.86,,---,0.86,VWS V14.01,2013-08-22 19:20:00,
2013-08-22 15:22:00,73.5,69.4,30.05,East,85,2.0,3.0,87,0.94,,---,0.94,VWS V14.01,2013-08-22 19:22:00,
2013-08-22 15:27:00,73.2,69.1,30.06,East,91,0.0,6.0,87,1.00,,---,1.00,VWS V14.01,2013-08-22 19:27:00,
2013-08-22 15:30:00,73.2,69.1,30.06,East,95,1.0,6.0,87,1.01,,---,1.01,VWS V14.01,2013-08-22 19:30:00,
2013-08-22 15:32:00,73.2,69.1,30.05,ESE,118,0.0,2.0,87,1.07,,---,1.07,VWS V14.01,2013-08-22 19:32:00,
2013-08-22 15:37:00,73.1,69.0,30.06,ESE,109,0.0,2.0,87,1.10,,---,1.10,VWS V14.01,2013-08-22 19:37:00,
2013-08-22 15:40:00,73.1,69.0,30.06,ESE,102,0.0,2.0,87,1.11,,---,1.11,VWS V14.01,2013-08-22 19:40:00,
2013-08-22 15:43:00,73.2,69.1,30.06,East,96,2.0,2.0,87,1.13,,---,1.13,VWS V14.01,2013-08-22 19:43:00,
2013-08-22 15:48:00,73.3,69.5,30.06,East,84,1.0,4.0,88,1.15,,---,1.15,VWS V14.01,2013-08-22 19:48:00,
2013-08-22 15:50:00,73.4,69.6,30.06,East,100,3.0,4.0,88,1.15,,---,1.15,VWS V14.01,2013-08-22 19:50:00,
2013-08-22 15:53:00,73.2,69.1,30.06,North,354,1.0,3.0,87,1.15,,---,1.18,VWS V14.01,2013-08-22 19:53:00,
2013-08-22 15:58:00,73.1,69.0,30.05,ENE,74,3.0,5.0,87,1.17,,---,1.20,VWS V14.01,2013-08-22 19:58:00,
2013-08-22 16:00:00,73.0,68.9,30.05,ESE,103,2.0,5.0,87,1.17,,---,1.20,VWS V14.01,2013-08-22 20:00:00,
2013-08-22 16:03:00,73.0,68.9,30.04,ENE,78,2.0,5.0,87,0.98,,---,1.21,VWS V14.01,2013-08-22 20:03:00,
2013-08-22 16:08:00,72.8,68.7,30.02,East,95,3.0,8.0,87,0.99,,---,1.22,VWS V14.01,2013-08-22 20:08:00,
2013-08-22 16:10:00,72.8,68.7,30.02,ENE,75,2.0,8.0,87,0.99,,---,1.22,VWS V14.01,2013-08-22 20:10:00,
2013-08-22 16:13:00,72.7,68.9,30.01,East,84,3.0,8.0,88,0.60,,---,1.22,VWS V14.01,2013-08-22 20:13:00,
2013-08-22 16:18:00,72.7,68.9,30.01,ESE,104,2.0,8.0,88,0.60,,---,1.22,VWS V14.01,2013-08-22 20:18:00,
2013-08-22 16:20:00,72.7,68.9,30.01,ENE,77,4.0,8.0,88,0.60,,---,1.22,VWS V14.01,2013-08-22 20:20:00,
2013-08-22 16:23:00,72.8,69.0,30.01,East,79,3.0,5.0,88,0.36,,---,1.22,VWS V14.01,2013-08-22 20:23:00,
2013-08-22 16:28:00,73.0,69.2,30.01,East,82,7.0,8.0,88,0.36,,---,1.22,VWS V14.01,2013-08-22 20:28:00,
2013-08-22 16:30:00,73.0,69.2,30.01,East,101,2.0,8.0,88,0.36,,---,1.22,VWS V14.01,2013-08-22 20:30:00,
2013-08-22 16:33:00,73.2,69.4,30.01,ENE,68,4.0,7.0,88,0.21,,---,1.22,VWS V14.01,2013-08-22 20:33:00,
2013-08-22 16:38:00,73.4,69.6,30.01,ENE,70,6.0,7.0,88,0.22,,---,1.23,VWS V14.01,2013-08-22 20:38:00,
2013-08-22 16:40:00,73.4,69.6,30.01,East,90,4.0,7.0,88,0.22,,---,1.23,VWS V14.01,2013-08-22 20:40:00,
2013-08-22 16:43:00,73.6,69.8,30.01,ENE,64,6.0,7.0,88,0.12,,---,1.23,VWS V14.01,2013-08-22 20:43:00,
2013-08-22 16:48:00,73.8,70.0,30.01,ENE,73,2.0,10.0,88,0.12,,---,1.23,VWS V14.01,2013-08-22 20:48:00,
2013-08-22 16:50:00,73.9,70.1,30.01,ENE,58,1.0,10.0,88,0.12,,---,1.23,VWS V14.01,2013-08-22 20:50:00,
2013-08-22 16:53:00,74.0,70.2,30.02,ENE,63,2.0,6.0,88,0.08,,---,1.23,VWS V14.01,2013-08-22 20:53:00,
2013-08-22 16:58:00,74.2,70.4,30.03,ENE,63,2.0,6.0,88,0.08,,---,1.23,VWS V14.01,2013-08-22 20:58:00,
2013-08-22 17:00:00,74.2,70.4,30.03,East,94,1.0,6.0,88,0.08,,---,1.23,VWS V14.01,2013-08-22 21:00:00,
2013-08-22 17:03:00,74.3,70.5,30.04,East,82,2.0,7.0,88,0.03,,---,1.23,VWS V14.01,2013-08-22 21:03:00,
2013-08-22 17:08:00,74.4,70.6,30.05,East,88,1.0,7.0,88,0.03,,---,1.23,VWS V14.01,2013-08-22 21:08:00,
2013-08-22 17:10:00,74.4,70.6,30.05,East,87,1.0,7.0,88,0.03,,---,1.23,VWS V14.01,2013-08-22 21:10:00,
2013-08-22 17:13:00,74.4,70.6,30.05,ESE,104,4.0,5.0,88,0.01,,---,1.23,VWS V14.01,2013-08-22 21:13:00,
2013-08-22 17:18:00,74.4,70.6,30.05,South,188,1.0,5.0,88,0.01,,---,1.23,VWS V14.01,2013-08-22 21:18:00,
2013-08-22 17:20:00,74.4,70.6,30.05,South,188,1.0,5.0,88,0.01,,---,1.23,VWS V14.01,2013-08-22 21:20:00,
2013-08-22 17:23:00,74.5,70.7,30.04,ENE,76,4.0,8.0,88,0.01,,---,1.23,VWS V14.01,2013-08-22 21:23:00,
2013-08-22 17:28:00,74.7,70.9,30.04,East,84,2.0,8.0,88,0.01,,---,1.23,VWS V14.01,2013-08-22 21:28:00,
2013-08-22 17:30:00,74.7,70.9,30.04,East,84,2.0,8.0,88,0.01,,---,1.23,VWS V14.01,2013-08-22 21:30:00,
2013-08-22 17:33:00,74.8,71.0,30.04,ENE,72,2.0,5.0,88,0.01,,---,1.23,VWS V14.01,2013-08-22 21:33:00,
2013-08-22 17:38:00,74.9,71.1,30.04,ENE,78,0.0,5.0,88,0.01,,---,1.23,VWS V14.01,2013-08-22 21:38:00,
2013-08-22 17:40:00,74.9,71.1,30.04,ENE,78,0.0,5.0,88,0.01,,---,1.23,VWS V14.01,2013-08-22 21:40:00,
2013-08-22 17:43:00,75.1,71.3,30.03,East,84,2.0,3.0,88,0.00,,---,1.23,VWS V14.01,2013-08-22 21:43:00,
2013-08-22 17:48:00,75.2,71.4,30.03,ESE,102,2.0,4.0,88,0.00,,---,1.23,VWS V14.01,2013-08-22 21:48:00,
2013-08-22 17:50:00,75.1,71.3,30.03,East,80,4.0,4.0,88,0.00,,---,1.23,VWS V14.01,2013-08-22 21:50:00,
2013-08-22 17:53:00,75.2,71.4,30.03,East,86,1.0,4.0,88,0.00,,---,1.23,VWS V14.01,2013-08-22 21:53:00,
2013-08-22 17:58:00,75.3,71.5,30.02,East,80,0.0,0.0,88,0.00,,---,1.23,VWS V14.01,2013-08-22 21:58:00,
2013-08-22 18:00:00,75.3,71.5,30.02,East,80,0.0,4.0,88,0.00,,---,1.23,VWS V14.01,2013-08-22 22:00:00,
2013-08-22 18:03:00,75.4,71.6,30.02,East,83,1.0,1.0,88,0.00,,---,1.23,VWS V14.01,2013-08-22 22:03:00,
2013-08-22 18:08:00,75.3,71.5,30.02,ENE,75,1.0,2.0,88,0.00,,---,1.23,VWS V14.01,2013-08-22 22:08:00,
2013-08-22 18:10:00,75.3,71.5,30.02,ENE,75,2.0,3.0,88,0.00,,---,1.23,VWS V14.01,2013-08-22 22:10:00,
2013-08-22 18:13:00,75.4,71.6,30.02,East,84,0.0,2.0,88,0.00,,---,1.23,VWS V14.01,2013-08-22 22:13:00,
2013-08-22 18:18:00,75.4,71.6,30.02,East,84,0.0,0.0,88,0.00,,---,1.23,VWS V14.01,2013-08-22 22:18:00,
2013-08-22 18:20:00,75.4,71.6,30.02,East,83,0.0,2.0,88,0.00,,---,1.23,VWS V14.01,2013-08-22 22:20:00,
2013-08-22 18:23:00,75.4,71.6,30.02,East,84,0.0,0.0,88,0.00,,---,1.23,VWS V14.01,2013-08-22 22:23:00,
2013-08-22 18:28:00,75.3,71.5,30.01,ENE,76,0.0,0.0,88,0.00,,---,1.23,VWS V14.01,2013-08-22 22:28:00,
2013-08-22 18:30:00,75.3,71.5,30.01,ENE,76,0.0,1.0,88,0.00,,---,1.23,VWS V14.01,2013-08-22 22:30:00,
2013-08-22 18:33:00,75.3,71.5,30.01,ENE,77,0.0,1.0,88,0.00,,---,1.23,VWS V14.01,2013-08-22 22:33:00,
2013-08-22 18:38:00,75.2,71.4,30.01,ENE,76,0.0,0.0,88,0.00,,---,1.23,VWS V14.01,2013-08-22 22:38:00,
2013-08-22 18:40:00,75.2,71.4,30.01,ENE,76,0.0,1.0,88,0.00,,---,1.23,VWS V14.01,2013-08-22 22:40:00,
2013-08-22 18:43:00,75.1,71.3,30.01,ENE,77,0.0,0.0,88,0.00,,---,1.23,VWS V14.01,2013-08-22 22:43:00,
2013-08-22 18:48:00,75.1,71.3,30.01,ENE,76,0.0,0.0,88,0.00,,---,1.23,VWS V14.01,2013-08-22 22:48:00,
2013-08-22 18:50:00,75.1,71.3,30.01,ENE,76,0.0,0.0,88,0.00,,---,1.23,VWS V14.01,2013-08-22 22:50:00,
2013-08-22 18:54:00,75.0,71.2,30.01,ENE,76,0.0,0.0,88,0.00,,---,1.23,VWS V14.01,2013-08-22 22:54:00,
2013-08-22 18:58:00,75.0,71.2,30.01,ENE,77,0.0,0.0,88,0.00,,---,1.23,VWS V14.01,2013-08-22 22:58:00,
2013-08-22 19:00:00,75.0,71.2,30.01,ENE,77,0.0,0.0,88,0.00,,---,1.23,VWS V14.01,2013-08-22 23:00:00,
2013-08-22 19:03:00,75.0,71.2,30.01,ENE,76,0.0,0.0,88,0.00,,---,1.23,VWS V14.01,2013-08-22 23:03:00,
2013-08-22 19:08:00,74.9,71.1,30.01,ENE,76,0.0,0.0,88,0.00,,---,1.23,VWS V14.01,2013-08-22 23:08:00,
2013-08-22 19:10:00,74.9,71.1,30.01,ENE,77,0.0,0.0,88,0.00,,---,1.23,VWS V14.01,2013-08-22 23:10:00,
2013-08-22 19:13:00,74.9,71.1,30.01,ENE,76,0.0,0.0,88,0.00,,---,1.23,VWS V14.01,2013-08-22 23:13:00,
2013-08-22 19:18:00,74.9,71.1,30.01,ENE,77,0.0,0.0,88,0.00,,---,1.23,VWS V14.01,2013-08-22 23:18:00,
2013-08-22 19:20:00,74.9,71.1,30.01,ENE,78,0.0,0.0,88,0.00,,---,1.23,VWS V14.01,2013-08-22 23:20:00,
2013-08-22 19:23:00,74.9,71.1,30.01,ENE,78,0.0,0.0,88,0.00,,---,1.23,VWS V14.01,2013-08-22 23:23:00,
2013-08-22 19:28:00,74.9,71.1,30.01,ENE,77,0.0,0.0,88,0.00,,---,1.23,VWS V14.01,2013-08-22 23:28:00,
2013-08-22 19:30:00,74.8,71.0,30.01,ENE,78,0.0,0.0,88,0.00,,---,1.23,VWS V14.01,2013-08-22 23:30:00,
2013-08-22 19:33:00,74.8,71.0,30.01,ENE,78,0.0,0.0,88,0.00,,---,1.23,VWS V14.01,2013-08-22 23:33:00,
2013-08-22 19:38:00,74.8,71.0,30.01,ENE,78,0.0,0.0,88,0.00,,---,1.23,VWS V14.01,2013-08-22 23:38:00,
2013-08-22 19:40:00,74.8,71.0,30.01,ENE,78,0.0,0.0,88,0.00,,---,1.23,VWS V14.01,2013-08-22 23:40:00,
2013-08-22 19:43:00,74.8,71.0,30.02,ENE,78,0.0,0.0,88,0.00,,---,1.23,VWS V14.01,2013-08-22 23:43:00,
2013-08-22 19:48:00,74.8,71.0,30.02,ENE,78,0.0,0.0,88,0.00,,---,1.23,VWS V14.01,2013-08-22 23:48:00,
2013-08-22 19:50:00,74.8,71.0,30.02,ENE,78,0.0,0.0,88,0.00,,---,1.23,VWS V14.01,2013-08-22 23:50:00,
2013-08-22 19:53:00,74.8,71.0,30.02,East,84,0.0,0.0,88,0.00,,---,1.23,VWS V14.01,2013-08-22 23:53:00,
2013-08-22 19:58:00,74.8,71.3,30.02,SE,138,0.0,0.0,89,0.00,,---,1.23,VWS V14.01,2013-08-22 23:58:00,
2013-08-22 20:00:00,74.8,71.3,30.02,SE,139,0.0,1.0,89,0.00,,---,1.23,VWS V14.01,2013-08-23 00:00:00,
2013-08-22 20:03:00,74.8,71.3,30.02,SE,124,0.0,0.0,89,0.00,,---,1.23,VWS V14.01,2013-08-23 00:03:00,
2013-08-22 20:08:00,74.8,71.3,30.01,East,98,0.0,0.0,89,0.00,,---,1.23,VWS V14.01,2013-08-23 00:08:00,
2013-08-22 20:10:00,74.8,71.3,30.01,East,98,0.0,1.0,89,0.00,,---,1.23,VWS V14.01,2013-08-23 00:10:00,
2013-08-22 20:13:00,74.8,71.3,30.01,East,96,0.0,0.0,89,0.00,,---,1.23,VWS V14.01,2013-08-23 00:13:00,
2013-08-22 20:18:00,74.8,71.3,30.01,East,96,0.0,0.0,89,0.00,,---,1.23,VWS V14.01,2013-08-23 00:18:00,
2013-08-22 20:20:00,74.8,71.3,30.01,East,96,0.0,1.0,89,0.00,,---,1.23,VWS V14.01,2013-08-23 00:20:00,
2013-08-22 20:23:00,74.8,71.3,30.00,East,84,1.0,1.0,89,0.00,,---,1.23,VWS V14.01,2013-08-23 00:23:00,
2013-08-22 20:28:00,74.8,71.3,30.00,East,99,0.0,0.0,89,0.00,,---,1.23,VWS V14.01,2013-08-23 00:28:00,
2013-08-22 20:30:00,74.8,71.3,30.00,East,99,0.0,1.0,89,0.00,,---,1.23,VWS V14.01,2013-08-23 00:30:00,
2013-08-22 20:33:00,74.9,71.4,30.00,ESE,103,0.0,1.0,89,0.00,,---,1.23,VWS V14.01,2013-08-23 00:33:00,
2013-08-22 20:38:00,74.9,71.4,30.00,ENE,65,0.0,1.0,89,0.00,,---,1.23,VWS V14.01,2013-08-23 00:38:00,
2013-08-22 20:40:00,74.9,71.4,30.00,ENE,61,1.0,2.0,89,0.00,,---,1.23,VWS V14.01,2013-08-23 00:40:00,
2013-08-22 20:43:00,74.9,71.4,30.00,East,84,1.0,2.0,89,0.00,,---,1.23,VWS V14.01,2013-08-23 00:43:00,
2013-08-22 20:48:00,74.9,71.4,30.00,ENE,78,0.0,1.0,89,0.00,,---,1.23,VWS V14.01,2013-08-23 00:48:00,
2013-08-22 20:50:00,74.9,71.4,30.00,ENE,78,0.0,2.0,89,0.00,,---,1.23,VWS V14.01,2013-08-23 00:50:00,
2013-08-22 20:53:00,75.0,71.5,29.99,East,81,1.0,2.0,89,0.00,,---,1.23,VWS V14.01,2013-08-23 00:53:00,
2013-08-22 20:58:00,75.0,71.5,30.00,East,92,1.0,1.0,89,0.00,,---,1.23,VWS V14.01,2013-08-23 00:58:00,
2013-08-22 21:00:00,75.0,71.5,29.99,East,92,1.0,2.0,89,0.00,,---,1.23,VWS V14.01,2013-08-23 01:00:00,
2013-08-22 21:03:00,75.0,71.5,30.00,ESE,113,0.0,1.0,89,0.00,,---,1.23,VWS V14.01,2013-08-23 01:03:00,
2013-08-22 21:08:00,75.1,71.6,29.99,East,91,2.0,2.0,89,0.00,,---,1.23,VWS V14.01,2013-08-23 01:08:00,
2013-08-22 21:10:00,75.1,71.6,30.00,East,93,1.0,2.0,89,0.00,,---,1.23,VWS V14.01,2013-08-23 01:10:00,
2013-08-22 21:13:00,75.1,71.6,29.99,East,86,0.0,2.0,89,0.00,,---,1.23,VWS V14.01,2013-08-23 01:13:00,
2013-08-22 21:18:00,75.2,71.7,29.99,ESE,118,0.0,0.0,89,0.00,,---,1.23,VWS V14.01,2013-08-23 01:18:00,
2013-08-22 21:20:00,75.2,71.7,29.99,ESE,118,0.0,2.0,89,0.00,,---,1.23,VWS V14.01,2013-08-23 01:20:00,
2013-08-22 21:23:00,75.2,71.7,29.99,East,99,0.0,1.0,89,0.00,,---,1.23,VWS V14.01,2013-08-23 01:23:00,
2013-08-22 21:28:00,75.2,71.7,30.00,East,79,1.0,2.0,89,0.00,,---,1.23,VWS V14.01,2013-08-23 01:28:00,
2013-08-22 21:30:00,75.2,71.7,30.00,East,84,1.0,1.0,89,0.00,,---,1.23,VWS V14.01,2013-08-23 01:30:00,
2013-08-22 21:33:00,75.3,71.8,29.99,ENE,76,0.0,2.0,89,0.00,,---,1.23,VWS V14.01,2013-08-23 01:33:00,
2013-08-22 21:38:00,75.3,71.8,30.00,ENE,77,0.0,0.0,89,0.00,,---,1.23,VWS V14.01,2013-08-23 01:38:00,
2013-08-22 21:40:00,75.2,71.7,30.00,ENE,78,0.0,2.0,89,0.00,,---,1.23,VWS V14.01,2013-08-23 01:40:00,
2013-08-22 21:43:00,75.2,71.7,30.00,East,79,0.0,0.0,89,0.00,,---,1.23,VWS V14.01,2013-08-23 01:43:00,
2013-08-22 21:48:00,75.3,71.8,30.00,ENE,75,1.0,1.0,89,0.00,,---,1.23,VWS V14.01,2013-08-23 01:48:00,
2013-08-22 21:50:00,75.3,71.8,30.00,ENE,75,1.0,3.0,89,0.00,,---,1.23,VWS V14.01,2013-08-23 01:50:00,
2013-08-22 21:53:00,75.3,71.8,30.00,ENE,63,0.0,2.0,89,0.00,,---,1.23,VWS V14.01,2013-08-23 01:53:00,
2013-08-22 21:58:00,75.3,71.8,30.00,ESE,120,0.0,2.0,89,0.00,,---,1.23,VWS V14.01,2013-08-23 01:58:00,
2013-08-22 22:00:00,75.3,71.8,30.00,ESE,120,0.0,2.0,89,0.00,,---,1.23,VWS V14.01,2013-08-23 02:00:00,
2013-08-22 22:03:00,75.2,71.7,30.01,ESE,108,0.0,0.0,89,0.00,,---,1.23,VWS V14.01,2013-08-23 02:03:00,
2013-08-22 22:08:00,75.2,71.7,30.01,ESE,108,0.0,0.0,89,0.00,,---,1.23,VWS V14.01,2013-08-23 02:08:00,
2013-08-22 22:10:00,75.2,71.7,30.01,ESE,108,0.0,0.0,89,0.00,,---,1.23,VWS V14.01,2013-08-23 02:10:00,
2013-08-22 22:13:00,75.2,71.7,30.01,ESE,108,0.0,0.0,89,0.00,,---,1.23,VWS V14.01,2013-08-23 02:13:00,
2013-08-22 22:18:00,75.2,71.7,30.01,ESE,109,0.0,0.0,89,0.00,,---,1.23,VWS V14.01,2013-08-23 02:18:00,
2013-08-22 22:20:00,75.2,71.7,30.01,ESE,109,0.0,0.0,89,0.00,,---,1.23,VWS V14.01,2013-08-23 02:20:00,
2013-08-22 22:23:00,75.2,71.7,30.01,ESE,108,0.0,0.0,89,0.00,,---,1.23,VWS V14.01,2013-08-23 02:23:00,
2013-08-22 22:28:00,75.2,71.7,30.01,East,90,0.0,0.0,89,0.00,,---,1.23,VWS V14.01,2013-08-23 02:28:00,
2013-08-22 22:30:00,75.2,71.7,30.01,East,91,0.0,0.0,89,0.00,,---,1.23,VWS V14.01,2013-08-23 02:30:00,
2013-08-22 22:33:00,75.2,71.7,30.01,East,89,0.0,0.0,89,0.00,,---,1.23,VWS V14.01,2013-08-23 02:33:00,
2013-08-22 22:38:00,75.2,71.7,30.01,East,88,0.0,0.0,89,0.00,,---,1.23,VWS V14.01,2013-08-23 02:38:00,
2013-08-22 22:40:00,75.2,71.7,30.02,East,88,0.0,0.0,89,0.00,,---,1.23,VWS V14.01,2013-08-23 02:40:00,
2013-08-22 22:43:00,75.1,71.6,30.01,East,88,0.0,0.0,89,0.00,,---,1.23,VWS V14.01,2013-08-23 02:43:00,
2013-08-22 22:48:00,75.2,71.7,30.01,East,88,0.0,0.0,89,0.00,,---,1.23,VWS V14.01,2013-08-23 02:48:00,
2013-08-22 22:50:00,75.2,71.7,30.01,East,88,0.0,0.0,89,0.00,,---,1.23,VWS V14.01,2013-08-23 02:50:00,
2013-08-22 22:53:00,75.2,71.7,30.02,ENE,75,0.0,0.0,89,0.00,,---,1.23,VWS V14.01,2013-08-23 02:53:00,
2013-08-22 22:58:00,75.3,71.8,30.02,ENE,75,0.0,0.0,89,0.00,,---,1.23,VWS V14.01,2013-08-23 02:58:00,
2013-08-22 23:00:00,75.3,71.8,30.02,ENE,75,0.0,0.0,89,0.00,,---,1.23,VWS V14.01,2013-08-23 03:00:00,
2013-08-22 23:03:00,75.3,71.8,30.02,ENE,78,0.0,0.0,89,0.00,,---,1.23,VWS V14.01,2013-08-23 03:03:00,
2013-08-22 23:08:00,75.3,71.8,30.02,East,91,0.0,2.0,89,0.00,,---,1.23,VWS V14.01,2013-08-23 03:08:00,
2013-08-22 23:10:00,75.3,71.8,30.02,East,91,0.0,2.0,89,0.00,,---,1.23,VWS V14.01,2013-08-23 03:10:00,
2013-08-22 23:13:00,75.2,71.7,30.02,East,87,0.0,1.0,89,0.00,,---,1.23,VWS V14.01,2013-08-23 03:13:00,
2013-08-22 23:18:00,75.2,71.7,30.02,East,93,1.0,1.0,89,0.00,,---,1.23,VWS V14.01,2013-08-23 03:18:00,
2013-08-22 23:20:00,75.2,71.7,30.02,East,93,1.0,1.0,89,0.00,,---,1.23,VWS V14.01,2013-08-23 03:20:00,
2013-08-22 23:23:00,75.2,71.7,30.03,East,91,0.0,3.0,89,0.00,,---,1.23,VWS V14.01,2013-08-23 03:23:00,
2013-08-22 23:28:00,75.2,71.7,30.03,East,86,1.0,1.0,89,0.00,,---,1.23,VWS V14.01,2013-08-23 03:28:00,
2013-08-22 23:30:00,75.3,71.8,30.03,East,99,1.0,3.0,89,0.00,,---,1.23,VWS V14.01,2013-08-23 03:30:00,
2013-08-22 23:33:00,75.2,71.7,30.03,East,84,0.0,3.0,89,0.00,,---,1.23,VWS V14.01,2013-08-23 03:33:00,
2013-08-22 23:38:00,75.2,71.7,30.03,ESE,106,1.0,1.0,89,0.00,,---,1.23,VWS V14.01,2013-08-23 03:38:00,
2013-08-22 23:40:00,75.2,71.7,30.03,ESE,108,1.0,3.0,89,0.00,,---,1.23,VWS V14.01,2013-08-23 03:40:00,
2013-08-22 23:43:00,75.1,71.6,30.03,East,101,0.0,2.0,89,0.00,,---,1.23,VWS V14.01,2013-08-23 03:43:00,
2013-08-22 23:48:00,75.1,71.6,30.03,East,97,0.0,1.0,89,0.00,,---,1.23,VWS V14.01,2013-08-23 03:48:00,
2013-08-22 23:50:00,75.1,71.6,30.03,East,98,1.0,3.0,89,0.00,,---,1.23,VWS V14.01,2013-08-23 03:50:00,
2013-08-22 23:53:00,75.1,71.6,30.03,East,86,0.0,2.0,89,0.00,,---,1.23,VWS V14.01,2013-08-23 03:53:00,
2013-08-22 23:58:00,75.0,71.5,30.03,East,84,0.0,2.0,89,0.00,,---,0.00,VWS V14.01,2013-08-23 03:58:00,